Weather History for KPPQ - February, 2014

Change the Weather History Date:

Monday, February 17, 2014

  Actual Average (KUIN) Record (KUIN)
Temperature  
Mean Temperature 33 °F 31 °F  
Max Temperature 42 °F 40 °F 70 °F (2011)
Min Temperature 24 °F 23 °F -18 °F (1903)
Degree Days  
Heating Degree Days 32 34  
Month to date heating degree days 609  
Since 1 July heating degree days 3995  
Cooling Degree Days 0 0  
Month to date cooling degree days 0  
Year to date cooling degree days 0  
Moisture  
Dew Point 28 °F    
Average Humidity 81    
Maximum Humidity 95    
Minimum Humidity 64    
Precipitation  
Precipitation 0.67 in 0.06 in 1.28 in (2008)
Month to date precipitation 1.04  
Year to date precipitation 2.56  
Sea Level Pressure  
Sea Level Pressure 29.93 in    
Wind  
Wind Speed 10 mph (SSW)    
Max Wind Speed 16 mph    
Max Gust Speed 23 mph    
Visibility 6 miles    
Events Rain , Snow , Thunderstorm    
T = Trace of Precipitation, MM = Missing Value Source: NWS Daily Summary

Daily Weather History Graph

Daily Weather History Graph

Search for Another Location

Airport or City:

Trip Planner

Search our weather history database for the weather conditions in past years. The results will help you decide how hot, cold, wet, or windy it might be!

Date:

Astronomy

Feb. 17, 2014 Rise Set
Actual Time 6:52 AM CST 5:41 PM CST
Civil Twilight 6:25 AM CST 6:09 PM CST
Nautical Twilight 5:53 AM CST 6:40 PM CST
Astronomical Twilight 5:22 AM CST 7:12 PM CST
Moon 8:35 PM CST (2/17) 7:54 AM CST (2/17)
Length of Visible Light 11h 44m
Length of Day
10h 49m
Waning Gibbous, 93% of the Moon is Illuminated
Feb 17
Waning Gibbous
Feb 22
Last Quarter
Mar 1
New
Mar 8
First Quarter
Mar 16
Full

Hourly Weather History & Observations

Time (CST) Temp. Windchill Dew Point Humidity Pressure Visibility Wind Dir Wind Speed Gust Speed Precip Events Conditions
12:15 AM 24.4 °F 13.0 °F 19.0 °F 80% 30.14 in 7.0 mi ESE 12.7 mph - N/A   Mostly Cloudy
12:35 AM 24.6 °F 13.8 °F 19.0 °F 79% 30.15 in 7.0 mi ESE 11.5 mph - N/A   Scattered Clouds
12:55 AM 24.4 °F 14.2 °F 19.0 °F 80% 30.14 in 7.0 mi ESE 10.4 mph - N/A   Scattered Clouds
1:15 AM 24.4 °F 13.5 °F 19.4 °F 81% 30.13 in 7.0 mi ESE 11.5 mph - N/A   Mostly Cloudy
1:35 AM 24.4 °F 13.5 °F 19.2 °F 81% 30.12 in 7.0 mi ESE 11.5 mph 16.1 mph N/A   Overcast
1:55 AM 24.4 °F 11.9 °F 19.4 °F 81% 30.09 in 7.0 mi ESE 15.0 mph - N/A   Overcast
2:15 AM 24.4 °F 12.4 °F 19.2 °F 81% 30.07 in 7.0 mi East 13.8 mph - N/A   Overcast
2:35 AM 24.3 °F 11.7 °F 19.0 °F 80% 30.05 in 7.0 mi ESE 15.0 mph 19.6 mph N/A   Overcast
2:55 AM 24.4 °F 11.9 °F 19.2 °F 81% 30.04 in 7.0 mi ESE 15.0 mph 19.6 mph N/A   Overcast
3:15 AM 24.4 °F 11.9 °F 19.2 °F 81% 30.02 in 7.0 mi ESE 15.0 mph - N/A   Overcast
3:35 AM 24.6 °F 12.2 °F 19.0 °F 79% 30.03 in 7.0 mi ESE 15.0 mph 19.6 mph N/A   Overcast
3:55 AM 24.6 °F 12.7 °F 19.2 °F 80% 30.01 in 7.0 mi ESE 13.8 mph 19.6 mph N/A   Overcast
4:15 AM 24.8 °F 13.4 °F 19.4 °F 80% 30.01 in 7.0 mi ESE 12.7 mph - N/A   Overcast
4:35 AM 24.8 °F 13.4 °F 19.4 °F 80% 30.02 in 7.0 mi SE 12.7 mph - N/A Thunderstorm Overcast
4:55 AM 25.3 °F 13.1 °F 20.3 °F 81% 30.00 in 5.0 mi ESE 15.0 mph - N/A Rain Light Freezing Rain
5:15 AM 26.2 °F 14.7 °F 22.3 °F 85% 29.98 in 3.0 mi ESE 13.8 mph - 0.04 in Rain Light Freezing Rain
5:35 AM 26.8 °F 14.9 °F 23.5 °F 88% 29.97 in 4.0 mi ESE 15.0 mph - 0.06 in   Light Freezing Rain
5:55 AM 27.7 °F 16.1 °F 25.2 °F 90% 29.94 in 2.0 mi ESE 15.0 mph - 0.12 in Rain Light Freezing Rain
6:15 AM 28.0 °F 19.3 °F 25.5 °F 90% 29.93 in 2.5 mi ESE 9.2 mph - 0.05 in Rain Light Freezing Rain
6:35 AM 28.6 °F 19.3 °F 26.4 °F 92% 29.92 in 3.0 mi ESE 10.4 mph - 0.10 in Rain Light Freezing Rain
6:55 AM 28.4 °F 19.7 °F 26.1 °F 91% 29.91 in 4.0 mi SE 9.2 mph - 0.11 in Rain Light Freezing Rain
7:15 AM 28.6 °F 19.9 °F 26.2 °F 91% 29.91 in 3.0 mi SE 9.2 mph - 0.02 in Rain Light Freezing Rain
7:35 AM 28.9 °F 21.9 °F 26.4 °F 90% 29.91 in 4.0 mi SE 6.9 mph - 0.03 in   Overcast
7:55 AM 29.8 °F 23.0 °F 27.5 °F 91% 29.89 in 2.5 mi ESE 6.9 mph - 0.11 in Rain Light Freezing Rain
8:15 AM 30.2 °F 24.3 °F 28.0 °F 92% 29.88 in 2.5 mi ESE 5.8 mph - 0.02 in Rain Light Freezing Rain
8:35 AM 30.2 °F 25.4 °F 27.7 °F 90% 29.86 in 4.0 mi SE 4.6 mph - 0.02 in   Overcast
8:55 AM 30.9 °F 26.2 °F 28.8 °F 92% 29.85 in 2.0 mi SE 4.6 mph - 0.06 in Rain Light Freezing Rain
9:15 AM 31.1 °F 25.4 °F 29.1 °F 92% 29.85 in 2.5 mi SE 5.8 mph - 0.02 in Rain Light Freezing Rain
9:35 AM 31.1 °F 26.4 °F 28.9 °F 92% 29.84 in 2.5 mi SE 4.6 mph - 0.04 in Rain Light Freezing Rain
9:55 AM 31.5 °F 28.1 °F 29.3 °F 92% 29.85 in 1.8 mi SE 3.5 mph - 0.05 in Rain Light Freezing Rain
10:15 AM 31.5 °F - 29.7 °F 93% 29.84 in 1.8 mi Calm Calm - 0.01 in   Light Freezing Rain
10:35 AM 31.6 °F - 30.0 °F 94% 29.83 in 1.8 mi Calm Calm - 0.01 in Rain Light Freezing Rain
10:55 AM 31.8 °F - 30.2 °F 94% 29.82 in 1.5 mi Calm Calm - 0.01 in Rain Light Freezing Rain
11:15 AM 32.0 °F - 30.2 °F 93% 29.82 in 1.8 mi Calm Calm - N/A Rain Rain
11:35 AM 32.0 °F - 30.7 °F 95% 29.82 in 2.0 mi Calm Calm - N/A Rain Light Rain
11:55 AM 32.0 °F - 30.7 °F 95% 29.81 in 2.5 mi Calm Calm - N/A Rain Light Rain
12:15 PM 32.0 °F - 30.6 °F 94% 29.79 in 1.2 mi Calm Calm - 0.01 in Snow Light Snow
12:35 PM 32.0 °F - 30.7 °F 95% 29.80 in 0.8 mi Calm Calm - 0.02 in Snow Light Snow
12:55 PM 32.2 °F 28.9 °F 30.9 °F 95% 29.81 in 1.8 mi WSW 3.5 mph - 0.02 in Snow Light Snow
1:15 PM 33.1 °F 30.0 °F 31.6 °F 94% 29.81 in 3.0 mi WSW 3.5 mph - N/A   Overcast
1:35 PM 33.8 °F 29.6 °F 31.8 °F 92% 29.81 in 3.0 mi West 4.6 mph - N/A   Overcast
1:55 PM 34.2 °F 31.2 °F 31.8 °F 91% 29.82 in 4.0 mi West 3.5 mph - N/A   Overcast
2:15 PM 35.1 °F 31.0 °F 32.0 °F 89% 29.82 in 4.0 mi West 4.6 mph - N/A   Mostly Cloudy
2:35 PM 35.4 °F 31.5 °F 32.0 °F 87% 29.83 in 4.0 mi West 4.6 mph - 0.02 in   Scattered Clouds
2:55 PM 36.1 °F 28.2 °F 32.4 °F 86% 29.84 in 4.0 mi West 11.5 mph 18.4 mph 0.07 in   Scattered Clouds
3:15 PM 37.2 °F 29.1 °F 32.9 °F 84% 29.85 in 5.0 mi West 12.7 mph 17.3 mph 0.02 in   Scattered Clouds
3:35 PM 38.1 °F 31.2 °F 33.8 °F 84% 29.85 in 5.0 mi West 10.4 mph - 0.04 in   Clear
3:55 PM 39.2 °F 31.2 °F 34.2 °F 82% 29.85 in 7.0 mi West 13.8 mph - 0.07 in   Clear
4:15 PM 39.6 °F 31.7 °F 34.2 °F 81% 29.86 in 7.0 mi WSW 13.8 mph 18.4 mph 0.02 in   Clear
4:35 PM 40.5 °F 32.5 °F 33.8 °F 77% 29.87 in 10.0 mi West 15.0 mph 19.6 mph 0.04 in   Clear
4:55 PM 41.2 °F 34.5 °F 33.4 °F 74% 29.89 in 10.0 mi WSW 11.5 mph - 0.05 in   Clear
5:15 PM 41.0 °F 34.3 °F 33.1 °F 73% 29.90 in 10.0 mi WSW 11.5 mph - N/A   Clear
5:35 PM 41.2 °F 33.0 °F 32.7 °F 72% 29.91 in 10.0 mi WSW 16.1 mph - N/A   Clear
5:55 PM 41.5 °F 33.5 °F 32.0 °F 69% 29.92 in 10.0 mi WSW 16.1 mph 21.9 mph N/A   Clear
6:15 PM 42.1 °F 34.5 °F 32.0 °F 67% 29.93 in 10.0 mi WSW 15.0 mph 23.0 mph N/A   Clear
6:35 PM 41.4 °F 34.3 °F 32.0 °F 69% 29.93 in 10.0 mi WSW 12.7 mph - N/A   Clear
6:55 PM 41.5 °F 34.6 °F 31.8 °F 68% 29.94 in 10.0 mi WSW 12.7 mph - N/A   Clear
7:15 PM 41.5 °F 34.6 °F 31.3 °F 67% 29.94 in 10.0 mi WSW 12.7 mph - N/A   Clear
7:35 PM 41.5 °F 34.6 °F 31.1 °F 66% 29.95 in 10.0 mi WSW 12.7 mph 20.7 mph N/A   Clear
7:55 PM 41.4 °F 34.7 °F 31.1 °F 67% 29.95 in 10.0 mi WSW 11.5 mph - N/A   Clear
8:15 PM 41.0 °F 34.3 °F 30.9 °F 67% 29.96 in 10.0 mi WSW 11.5 mph - N/A   Clear
8:35 PM 41.0 °F 33.5 °F 30.9 °F 67% 29.96 in 10.0 mi WSW 13.8 mph - N/A   Clear
8:55 PM 41.4 °F 33.6 °F 30.9 °F 66% 29.97 in 10.0 mi WSW 15.0 mph 20.7 mph N/A   Clear
9:15 PM 41.0 °F 33.5 °F 30.9 °F 67% 29.97 in 10.0 mi WSW 13.8 mph - N/A   Clear
9:35 PM 41.4 °F 34.0 °F 30.9 °F 66% 29.97 in 10.0 mi WSW 13.8 mph 18.4 mph N/A   Clear
9:55 PM 41.2 °F 34.1 °F 30.7 °F 66% 29.97 in 10.0 mi WSW 12.7 mph - N/A   Clear
10:15 PM 41.4 °F 34.7 °F 30.2 °F 65% 29.97 in 10.0 mi WSW 11.5 mph 17.3 mph N/A   Clear
10:35 PM 41.0 °F 34.7 °F 30.2 °F 65% 29.97 in 10.0 mi WSW 10.4 mph - N/A   Clear
10:55 PM 41.4 °F 34.3 °F 30.0 °F 64% 29.98 in 10.0 mi WSW 12.7 mph 17.3 mph N/A   Clear
11:15 PM 41.0 °F 35.8 °F 29.8 °F 64% 29.98 in 10.0 mi WSW 8.1 mph - N/A   Clear
11:35 PM 40.5 °F 37.3 °F 29.5 °F 65% 29.98 in 10.0 mi WSW 4.6 mph - N/A   Clear
11:55 PM 40.1 °F 36.9 °F 29.1 °F 65% 29.99 in 10.0 mi WSW 4.6 mph - N/A   Clear